Location: Laguna de la Cañada del Gallo
(40.3974°N, 5.2096°W)
Time: 14:44:16
(UTC+00:00)

NOSS 3-1 (A) - Pass Details

Date: 18 April 2024
Orbit: 660 x 1550 km, 63.4° (Epoch: 15 May)

Event Time Altitude Azimuth Distance (km) Brightness Sun altitude
Rises 19:41:26 0° 201° (SSW) 2,993 6.1 -7.7°
Reaches altitude 10° 19:43:38 10° 197° (SSW) 2,118 5.3 -8.1°
Maximum altitude 19:48:17 59° 119° (ESE) 856 3.0 -8.9°
Drops below altitude 10° 19:53:43 10° 41° (NE) 2,468 5.5 -9.8°
Sets 19:56:28 0° 38° (NE) 3,539 6.3 -10.3°
